Location: Litvinovka
(48.6667°N, 34.3500°E)
Time: 03:07:42
(UTC+00:00)

SJ-11-01 - Visible Passes

Search period start: 16 January 2021 00:00
Search period end: 26 January 2021 00:00
Orbit: 683 x 701 km, 98.0° (Epoch: 15 January)

Date Brightness Start Highest point End Pass type
(mag) Time Alt. Az. Time Alt. Az. Time Alt. Az.
16 Jan 4.2 16:10:05 10° SSE 16:14:44 64° ENE 16:19:23 10° N visible
16 Jan 6.9 17:49:37 10° SW 17:52:44 17° W 17:55:51 10° NW visible
17 Jan 7.5 04:06:05 10° ENE 04:07:59 12° E 04:09:52 10° ESE visible
17 Jan 5.5 15:13:43 10° ESE 15:17:13 21° ENE 15:20:43 10° NNE visible
17 Jan 4.9 16:49:48 10° S 16:54:25 56° W 16:59:04 10° NNW visible
18 Jan 6.7 04:44:05 10° NE 04:48:06 28° E 04:52:06 10° SSE visible
18 Jan 4.5 15:52:08 10° SE 15:56:36 44° ENE 16:01:02 10° N visible
18 Jan 6.4 17:30:30 10° SSW 17:34:21 25° W 17:38:12 10° NW visible
19 Jan 5.8 14:56:31 10° E 14:59:14 15° ENE 15:01:56 10° NNE visible
19 Jan 4.3 16:31:29 10° SSE 16:36:11 83° WSW 16:40:54 10° NNW visible
19 Jan 7.5 18:13:23 10° W 18:14:30 11° W 18:15:37 10° WNW visible
20 Jan 7.2 04:26:21 10° NE 04:29:43 19° E 04:33:05 10° SE visible
20 Jan 5.0 15:34:23 10° SE 15:38:30 31° ENE 15:42:37 10° N visible
20 Jan 5.8 17:11:42 10° SSW 17:16:00 35° W 17:20:19 10° NNW visible
21 Jan 4.2 16:13:20 10° SSE 16:17:59 69° ENE 16:22:39 10° N visible
21 Jan 7.1 17:53:10 10° SW 17:56:03 16° W 17:58:56 10° NW visible
22 Jan 7.4 04:09:02 10° ENE 04:11:18 13° E 04:13:33 10° ESE visible
22 Jan 5.4 15:16:50 10° ESE 15:20:27 23° ENE 15:24:03 10° NNE visible
22 Jan 5.0 16:53:08 10° S 16:57:42 52° W 17:02:17 10° NNW visible
23 Jan 6.5 04:47:16 10° NNE 04:51:24 30° E 04:55:30 10° SSE visible
23 Jan 4.5 15:55:21 10° SE 15:59:50 47° ENE 16:04:20 10° N visible
23 Jan 6.6 17:33:56 10° SW 17:37:38 23° W 17:41:22 10° NW visible
24 Jan 5.7 14:59:34 10° E 15:02:26 16° ENE 15:05:20 10° NNE visible
24 Jan 4.4 16:34:46 10° S 16:39:27 76° WSW 16:44:09 10° NNW visible
25 Jan 7.1 04:29:29 10° NE 04:33:02 21° E 04:36:33 10° SE visible
25 Jan 4.9 15:37:33 10° SE 15:41:44 33° ENE 15:45:55 10° N visible
25 Jan 5.9 17:15:05 10° SSW 17:19:18 33° W 17:23:31 10° NNW visible
